Theta_e
299 290 285 288 290 290 290 288 288 290 290 286 287 285 288 289 289 288 290 291 292 294 296 297 298 299 299 299 299 300 300 301 301 303 300 300 299 299 299 299 301 301 300 300
293 285 290 292 292 291 289 287 284 288 290 286 285 283 285 287 287 287 287 288 290 292 294 296 296 296 296 296 297 298 300 300 301 302 302 301 300 299 300 301 300 300 300 300
287 288 292 291 286 288 285 282 281 281 285 286 282 282 283 287 288 288 289 288 289 290 291 293 294 293 293 294 295 297 299 300 300 301 301 300 299 300 300 300 299 299 300 300
287 291 290 288 285 285 282 285 284 283 279 275 281 275 280 283 284 286 286 285 286 288 290 292 292 292 292 293 295 296 298 299 300 299 298 297 296 296 300 300 298 298 298 298
283 284 284 282 284 286 282 285 282 280 277 276 277 274 278 283 281 282 283 285 285 287 288 289 291 293 293 294 293 294 295 297 298 297 298 297 296 297 298 297 297 297 297 297
284 288 285 284 286 286 287 281 280 278 278 273 269 271 275 278 281 281 283 284 285 285 286 288 289 291 291 292 292 292 292 293 295 296 296 295 295 295 296 296 295 295 296 295
283 282 285 286 283 286 283 281 276 273 274 275 265 271 276 280 282 282 282 282 283 284 284 284 285 285 286 287 289 291 291 291 292 293 293 294 294 294 293 294 295 294 294 293
277 278 281 284 280 278 279 277 274 266 270 272 266 268 276 282 283 283 283 282 283 283 284 283 284 284 284 286 286 287 288 290 290 290 290 291 292 292 292 292 292 291 291 291
277 280 281 282 283 281 280 275 276 269 262 266 273 278 279 280 279 281 280 281 281 282 282 282 284 284 285 285 285 286 286 287 289 290 289 289 290 290 290 290 290 289 289 289
278 274 279 281 282 280 280 279 274 274 265 264 272 270 275 273 271 275 278 278 279 281 281 281 282 283 284 284 285 285 286 285 286 287 288 290 289 289 288 288 288 287 287 287
280 277 278 278 275 276 275 275 275 275 275 268 266 273 277 270 271 270 271 278 273 274 279 280 281 282 283 283 283 284 284 283 284 285 285 286 289 288 288 286 286 286 287 287
281 280 272 278 279 280 277 278 279 272 268 271 271 270 275 271 271 271 272 276 276 274 276 277 280 281 282 282 282 282 282 282 283 284 284 284 286 288 286 286 285 286 286 286
281 277 269 276 275 276 275 278 278 274 276 269 267 271 273 273 271 271 270 271 273 275 275 277 278 279 280 281 281 281 281 281 282 282 282 282 283 285 286 285 286 286 286 286
285 279 273 272 273 273 272 276 277 273 268 272 273 274 268 270 268 268 268 270 272 272 275 276 275 276 279 280 279 279 280 281 281 281 281 280 280 282 284 287 286 286 286 285
282 270 275 275 275 273 272 272 273 272 273 269 274 269 267 266 266 268 269 273 274 275 275 275 275 276 276 278 278 278 279 280 280 280 280 279 280 280 281 283 284 285 285 284
281 270 270 266 276 275 271 275 275 273 274 273 275 274 268 268 270 270 273 272 274 275 274 275 276 275 275 276 277 278 278 278 279 278 278 280 279 278 279 281 283 284 284 283
276 272 267 266 270 269 267 270 271 272 271 270 266 266 267 266 270 271 272 274 275 274 273 273 273 274 275 276 277 277 277 278 278 278 278 279 279 277 277 278 281 282 282 282
270 270 270 267 265 262 275 275 274 271 274 270 268 267 268 268 271 275 277 276 272 272 270 271 273 274 275 276 275 275 277 277 277 277 277 278 279 278 278 277 279 280 281 281
279 272 267 263 263 272 276 273 273 271 271 274 272 271 273 273 273 274 277 276 275 275 274 274 273 275 276 276 277 276 276 276 276 275 276 276 277 276 278 279 280 281 280 280
276 274 270 268 260 261 272 274 275 275 268 272 273 272 272 273 267 271 275 276 275 275 276 276 277 277 277 277 278 277 275 275 274 275 275 276 275 275 275 278 279 281 281 280
268 272 267 268 265 270 274 275 276 267 270 273 273 273 272 270 271 273 275 275 276 276 276 277 277 276 277 278 277 276 275 274 276 276 275 275 275 275 276 278 280 281 279 279
270 268 266 265 263 264 275 274 272 273 274 274 273 273 272 273 273 274 274 274 275 274 275 276 276 276 277 277 277 275 274 276 275 274 274 273 274 275 276 277 279 279 278 276
268 275 273 273 272 274 274 273 275 275 273 273 273 273 273 272 272 273 273 274 274 274 275 276 275 275 276 276 276 275 275 275 274 272 271 272 273 274 276 276 276 276 277 275
274 274 270 271 272 273 273 275 275 274 274 275 275 274 273 272 273 273 273 273 273 274 273 274 273 273 274 274 275 274 274 273 271 270 270 271 272 272 273 274 276 275 275 275
274 271 269 270 271 270 273 275 275 274 275 274 274 273 273 273 272 272 272 272 272 273 273 273 273 273 273 274 273 272 273 271 270 270 270 270 271 271 272 273 274 275 276 276
273 273 271 271 273 272 273 274 274 272 272 272 272 271 272 272 271 272 271 272 272 272 272 272 272 272 273 273 272 272 272 271 270 269 269 269 269 270 271 272 272 276 278 279
Wind_Speed
5 10 8 8 6 3 5 4 6 6 3 6 7 7 6 9 11 11 10 12 9 9 6 6 6 6 8 8 8 8 8 8 6 2 1 3 4 4 4 4 6 4 3 4
7 8 7 6 9 3 9 4 6 6 4 5 7 8 9 9 8 8 9 10 9 10 9 8 8 8 8 8 8 8 8 8 7 4 2 2 2 3 2 2 3 5 5 5
8 5 7 5 9 9 8 4 5 4 11 1 7 4 7 5 9 9 10 9 10 7 6 6 7 7 7 8 8 8 8 8 7 8 4 4 4 4 3 3 3 3 3 4
7 7 7 6 5 7 1 5 6 6 7 2 6 2 4 8 9 10 9 9 9 9 8 8 8 8 7 6 7 8 8 8 7 8 6 6 4 6 5 4 3 3 3 4
2 4 5 6 2 4 1 4 4 1 1 4 5 4 5 9 7 8 8 9 9 9 9 9 9 8 7 7 7 7 8 8 8 7 7 5 6 5 4 3 2 3 4 5
4 1 4 4 4 3 7 3 2 2 2 3 4 4 4 2 5 6 6 9 9 9 10 11 11 11 9 8 8 7 8 7 8 7 7 8 8 8 6 5 4 4 4 4
1 2 2 4 4 2 5 4 4 6 3 6 3 2 4 7 9 9 9 9 9 9 9 9 10 9 9 9 9 10 9 9 8 8 8 8 8 8 8 7 5 5 4 4
4 5 5 8 5 3 5 2 4 4 3 5 4 6 3 8 9 9 8 7 8 9 10 9 9 8 9 10 10 10 13 13 9 8 8 7 8 5 6 7 6 5 4 4
5 3 2 5 3 3 4 4 2 3 1 2 5 1 2 6 7 7 7 8 9 9 9 10 11 11 12 12 11 12 14 15 15 12 10 10 8 9 9 9 7 5 6 4
1 4 1 0 1 2 2 1 3 2 4 6 6 4 6 5 0 5 7 7 7 7 8 10 11 13 13 13 11 13 14 14 14 16 15 14 12 11 9 7 8 7 6 6
3 3 3 2 3 4 1 1 2 1 2 4 5 7 4 5 3 1 5 6 3 6 6 7 10 10 11 12 12 12 12 14 15 15 17 18 17 13 11 8 8 7 7 7
2 1 4 6 3 2 1 3 4 4 6 4 3 9 2 5 4 2 6 5 5 4 5 6 9 10 11 11 12 12 12 13 13 15 16 17 19 17 11 10 8 7 8 7
2 2 4 5 2 1 3 5 4 2 0 8 3 9 3 1 3 2 4 6 6 5 7 8 8 9 9 12 13 15 16 16 16 15 15 17 18 19 16 12 10 8 9 7
2 3 7 7 7 2 4 5 6 7 3 5 13 12 2 4 3 6 6 5 4 5 8 7 6 6 8 11 14 15 15 16 18 17 16 17 17 16 18 16 8 7 7 7
1 4 3 6 7 5 5 9 7 10 11 7 19 4 2 2 4 6 6 7 7 8 8 7 8 9 8 12 14 13 13 16 16 18 18 17 17 16 16 15 9 7 11 7
2 4 1 6 8 3 7 19 11 13 15 14 19 20 3 5 4 5 8 6 8 9 8 8 10 8 11 14 14 14 14 15 15 17 19 18 15 13 14 14 11 12 9 10
3 1 2 7 2 7 8 9 6 5 4 6 4 6 2 5 6 7 7 8 9 8 7 9 8 9 12 13 12 13 14 14 15 16 18 18 16 14 12 11 10 11 11 9
4 2 1 5 5 1 8 3 1 5 4 2 1 2 5 6 6 10 8 4 6 8 8 8 9 10 11 10 9 9 12 15 15 16 16 16 17 16 14 10 11 13 11 10
2 1 3 1 3 9 3 3 2 2 0 2 0 2 4 6 7 6 5 6 9 13 11 10 8 11 13 13 11 11 15 14 14 16 16 16 16 18 18 17 16 14 11 10
2 2 4 1 2 7 1 4 1 4 4 3 3 5 6 7 8 8 11 12 14 13 13 15 14 13 15 15 13 15 15 14 15 16 17 17 16 16 18 18 17 13 10 10
3 3 6 7 6 10 3 4 1 3 3 3 3 5 6 5 6 13 15 15 14 14 17 17 15 14 15 14 14 15 15 15 15 16 17 17 16 16 16 17 14 12 7 8
8 8 6 2 3 11 4 2 6 3 4 2 4 5 7 9 12 14 14 16 17 18 18 17 14 15 16 14 13 14 15 15 15 15 16 17 16 13 13 16 13 10 7 5
3 8 6 10 8 3 2 4 5 4 1 3 5 6 7 11 13 14 14 15 15 16 15 14 13 15 17 13 12 15 15 15 15 15 16 15 16 14 13 13 13 9 6 5
5 3 3 4 1 5 5 5 2 0 2 4 4 7 8 12 14 15 13 14 14 14 15 13 15 16 18 14 13 11 13 13 13 15 15 14 14 15 14 11 9 9 7 7
4 4 4 5 1 4 3 3 3 3 4 4 5 6 10 10 14 15 15 15 14 15 15 15 15 16 18 16 12 12 13 12 13 14 13 13 10 12 13 11 10 9 8 8
6 6 5 4 5 4 4 2 2 1 2 4 5 7 7 8 13 14 14 13 14 15 17 17 17 17 17 12 13 15 13 12 14 14 12 10 10 10 10 10 12 15 20 20
Wind_Direction
29 58 44 17 11 316 319 339 345 11 47 351 344 340 32 30 40 31 24 33 50 87 94 74 34 20 22 13 9 354 343 336 334 321 294 276 258 242 240 219 234 220 243 233
49 58 2 310 359 2 11 345 360 289 36 343 348 327 59 52 57 49 41 28 43 23 28 46 35 23 18 10 357 348 346 338 332 329 306 300 344 306 277 253 220 207 225 235
70 13 316 359 27 6 55 26 353 311 328 198 318 149 93 92 73 59 48 47 31 50 36 17 19 23 13 7 351 345 340 339 334 338 338 335 328 318 308 284 266 248 249 258
57 3 18 31 66 360 1 7 319 323 2 291 29 205 152 133 81 64 47 40 37 28 20 20 12 10 359 2 354 338 339 341 340 341 331 316 293 294 287 245 212 203 202 271
272 7 7 51 2 328 359 328 293 351 282 23 351 65 171 127 80 60 37 40 30 26 25 19 11 4 358 5 349 344 334 338 333 335 324 307 297 291 285 304 281 221 213 226
78 229 30 332 295 257 284 336 243 276 159 19 231 111 230 82 112 78 48 36 33 31 26 24 16 9 354 350 341 335 329 329 323 322 314 305 299 298 300 293 275 245 227 219
180 43 65 348 310 212 345 4 341 348 355 225 276 357 247 106 77 60 41 34 25 26 29 22 12 1 350 348 348 348 341 323 317 313 303 295 291 296 292 286 275 258 243 222
39 332 15 343 46 329 354 52 134 264 298 298 329 256 259 112 66 60 50 46 24 19 21 9 354 348 343 348 346 346 342 327 316 308 299 291 285 274 269 272 275 266 250 239
20 295 111 44 356 24 326 38 328 81 134 43 236 259 72 94 56 39 40 33 21 8 10 355 354 355 349 350 348 354 344 337 329 312 299 291 276 269 264 260 261 250 256 244
126 315 50 151 283 50 135 354 31 360 339 296 272 270 234 215 25 355 16 13 8 344 346 354 356 352 348 345 345 343 338 336 331 330 325 305 285 275 267 259 258 251 246 237
110 105 277 111 205 181 39 38 33 67 147 227 304 264 248 144 159 260 308 329 315 287 334 350 344 340 340 335 337 331 330 332 330 329 325 320 305 277 267 259 253 250 252 239
79 123 261 229 98 11 293 219 193 141 268 235 200 268 14 134 147 177 275 288 279 279 325 321 330 328 327 322 327 326 328 327 326 326 321 317 311 298 273 265 255 245 253 246
133 262 334 312 344 276 205 200 196 81 149 215 183 265 239 84 88 298 280 300 296 313 324 327 316 312 311 328 331 335 335 329 321 319 320 319 315 312 296 276 268 263 258 241
350 276 191 210 219 139 255 219 210 158 203 257 234 276 259 282 321 308 305 299 301 315 301 287 292 298 322 328 327 325 322 321 318 317 314 313 312 308 304 294 279 289 271 250
76 238 327 271 269 203 231 250 235 209 236 228 275 258 274 288 310 294 284 310 323 300 295 306 318 319 314 319 320 316 314 317 317 319 314 308 307 306 301 293 284 268 277 267
99 267 101 277 270 324 271 261 247 231 256 258 267 278 202 264 305 302 291 285 293 280 294 323 325 314 314 316 313 313 308 310 318 317 315 310 301 302 300 298 282 268 257 261
165 187 37 264 351 325 300 238 196 204 199 160 209 227 324 307 309 300 288 289 277 289 306 309 301 305 304 301 304 308 308 315 315 313 314 315 310 299 295 294 289 273 259 259
130 120 131 270 10 9 241 122 112 197 198 169 115 239 232 238 248 277 284 256 299 312 297 301 299 303 298 296 306 296 314 316 315 315 315 320 325 317 306 290 284 278 261 237
177 169 287 259 249 285 239 131 85 30 247 95 331 299 309 319 293 291 0 360 322 315 313 306 302 306 306 315 316 315 318 316 315 314 315 320 322 316 314 307 299 287 267 252
46 46 136 104 212 263 162 138 29 149 254 115 26 329 324 335 312 306 333 326 313 315 312 311 311 312 312 316 321 318 314 315 314 318 318 319 318 315 311 306 299 285 263 255
159 179 216 228 256 279 109 129 190 91 284 94 345 308 308 303 277 306 317 314 313 313 313 311 315 310 310 318 320 312 314 314 316 319 317 317 315 311 309 307 308 296 275 259
169 158 211 178 255 278 132 108 172 79 92 13 319 319 312 303 303 305 311 312 313 314 313 313 313 311 313 318 317 312 310 314 317 319 317 315 314 313 310 310 310 302 270 254
282 198 195 179 216 108 57 92 90 68 10 337 334 320 311 309 307 310 309 310 308 307 308 312 311 310 310 314 314 310 311 314 317 318 315 313 312 313 313 314 313 308 291 251
240 155 220 39 309 153 128 103 101 21 342 358 325 315 315 308 308 308 310 310 312 310 311 313 310 305 306 308 306 308 310 312 312 311 311 311 311 314 316 312 309 306 299 289
192 93 196 260 96 48 90 158 310 10 350 334 309 301 303 307 307 308 310 309 309 307 307 307 304 302 299 300 305 317 313 311 309 309 307 306 308 310 309 306 305 303 294 280
176 198 173 235 121 96 131 122 60 349 299 284 288 295 293 294 300 303 300 301 301 302 307 306 303 299 300 297 309 312 309 310 310 306 304 305 305 308 302 304 307 303 303 306